GEFSMA_850_meantemp_000.txt.gz
Temperature
18 18 18 17 17 17 17 17 18 17 17 18 18 18 18 18 18 18 18 18 18 18 18 18 18 17 17 17 17 17 17 17 17 17 16 16 16 15 15 15 15 15 15
18 17 18 17 17 17 17 17 17 17 18 18 18 18 18 18 18 18 18 18 18 18 18 18 18 18 17 17 17 17 17 17 17 17 16 16 16 16 15 15 15 15 15
18 18 17 17 17 17 17 17 17 18 18 18 18 18 18 18 18 18 18 18 18 18 18 18 18 18 18 17 17 17 17 17 17 17 17 17 16 16 16 15 15 15 15
18 18 17 17 17 17 17 17 17 17 18 18 18 18 18 18 18 18 18 18 18 18 18 18 18 18 18 17 17 17 17 18 17 17 17 17 16 16 15 15 15 15 15
18 18 17 18 18 17 18 18 18 18 18 18 18 18 18 18 18 18 18 18 18 18 18 18 18 18 18 17 17 17 17 18 17 17 17 17 17 16 16 15 15 15 15
17 17 17 18 18 18 18 18 18 18 17 18 17 17 17 18 18 18 18 18 18 18 18 18 18 18 18 18 17 17 17 17 17 17 17 17 17 16 16 15 15 15 15
17 17 18 18 18 18 18 17 17 17 17 17 17 17 17 17 17 18 18 18 18 18 18 18 19 18 18 18 18 17 17 17 17 17 17 17 17 16 16 15 15 15 14
17 17 18 18 18 18 17 17 16 16 16 16 16 16 15 16 17 18 19 19 19 18 18 18 18 18 18 18 18 18 18 17 17 17 17 17 17 16 16 15 15 15 14
18 18 18 17 17 16 16 17 16 16 15 15 16 15 15 16 16 17 18 19 19 18 18 18 18 18 18 18 18 18 18 17 17 17 17 16 16 16 15 15 15 15 14
17 17 17 17 17 16 16 16 15 15 15 15 15 15 15 15 15 16 17 18 18 18 18 18 18 18 18 17 17 17 17 17 17 17 17 17 17 16 16 15 15 15 15
16 16 16 16 16 16 16 15 15 15 14 14 15 15 15 15 15 15 16 16 17 17 18 17 18 18 18 17 17 17 17 17 17 17 17 17 17 17 16 16 15 15 15
15 16 16 16 15 15 15 14 14 14 14 14 14 14 14 14 15 15 16 16 16 17 17 17 17 17 17 17 17 17 17 17 17 17 17 17 17 17 16 16 16 15 15
15 15 15 15 14 14 14 14 13 14 14 14 14 14 14 14 14 14 14 15 15 15 16 17 17 17 17 17 17 17 17 17 17 17 17 17 17 16 16 16 16 15 15
15 15 15 14 14 14 14 14 14 14 13 13 13 13 13 14 14 14 14 14 14 15 15 15 16 16 16 16 16 16 16 16 17 17 17 16 16 16 16 16 15 15 15
13 14 14 14 14 14 14 14 14 13 13 13 13 13 13 13 13 13 13 14 14 14 14 14 14 15 15 15 15 15 16 16 16 16 16 15 15 16 16 16 15 15 14
13 13 13 13 13 13 13 13 13 13 13 13 13 13 13 13 13 13 13 13 13 13 13 13 13 13 14 15 15 15 15 15 16 16 15 15 15 15 15 15 15 15 14
13 13 12 12 12 13 13 13 13 13 13 13 13 13 13 13 13 13 13 13 13 13 13 14 13 14 14 14 14 14 15 15 16 15 15 15 15 14 14 15 15 14 14
13 13 12 12 12 12 12 12 12 12 12 12 12 12 12 12 12 12 12 12 13 13 13 14 14 14 14 14 14 14 14 15 15 15 15 14 14 14 14 14 14 14 13
13 13 12 12 12 12 12 12 12 11 11 11 11 11 11 11 11 11 12 12 13 13 13 13 13 13 14 14 14 14 14 14 14 14 14 14 14 14 14 13 13 13 13
13 13 12 11 11 11 11 11 11 11 11 11 11 11 11 11 11 11 11 12 12 12 12 12 12 12 13 13 13 13 14 14 14 14 14 14 14 14 14 14 13 13 13
13 13 12 11 11 11 11 11 11 11 11 11 11 11 11 11 11 11 11 11 11 11 11 12 12 12 12 12 12 13 13 13 14 14 14 14 14 14 14 14 14 13 13
12 12 12 12 12 11 11 11 11 11 11 10 11 11 11 11 11 11 11 11 11 11 11 11 11 12 11 12 12 12 13 13 13 14 14 14 14 14 14 14 14 14 14
12 12 12 12 12 12 11 11 11 11 11 11 11 11 11 11 11 11 11 11 11 11 11 11 11 11 11 11 11 12 12 12 12 12 13 13 14 14 14 14 14 14 14
12 12 11 12 12 11 11 11 11 11 11 11 11 11 11 11 11 11 11 11 11 12 11 11 11 11 11 11 11 11 11 12 12 12 12 12 13 13 13 14 14 14 14
11 11 11 11 11 11 11 11 11 11 11 11 11 11 11 10 10 11 11 11 11 11 11 11 11 11 12 12 12 11 12 12 11 11 11 11 11 12 12 12 13 13 13
11 11 11 11 11 11 11 11 11 11 11 11 10 10 10 10 10 10 10 11 11 11 11 12 12 12 12 12 12 12 12 11 11 11 11 11 11 11 11 12 12 12 12

GEFSMA_850_meantemp_006.txt.gz
Temperature
18 18 18 18 18 18 18 18 18 18 18 18 18 18 18 18 18 18 18 18 18 18 18 18 18 18 18 18 18 17 17 17 18 17 17 17 17 17 17 16 16 16 15
18 18 18 18 18 18 18 18 18 18 18 18 18 18 18 18 18 18 18 18 18 18 18 18 18 18 18 18 18 18 18 18 18 17 17 17 17 17 17 16 16 16 16
18 18 18 18 18 18 18 18 18 18 18 18 18 18 18 18 18 17 18 18 18 18 19 19 18 18 18 18 18 18 18 18 18 17 17 18 17 17 17 17 16 16 16
18 18 18 18 18 18 18 18 18 18 18 18 18 18 18 18 18 18 18 18 18 18 19 18 19 19 18 18 18 18 18 18 18 18 18 18 17 17 17 17 17 16 15
18 18 18 18 18 18 18 18 18 18 18 18 18 18 18 18 18 18 19 18 19 18 18 18 18 19 19 18 18 18 18 18 18 18 18 18 17 17 17 17 17 16 16
18 18 18 18 18 18 18 18 18 18 18 18 18 18 18 18 18 19 19 19 19 19 19 19 18 18 19 19 18 18 18 18 18 18 17 18 17 17 17 17 16 16 16
19 18 17 17 17 17 18 18 18 17 17 17 17 18 19 19 19 19 19 19 19 19 19 19 18 18 18 18 18 18 18 18 18 18 17 17 17 17 17 16 16 16 16
19 19 18 17 17 17 17 17 17 17 17 17 17 18 19 20 20 19 19 18 18 19 19 19 18 18 18 18 18 18 18 18 18 18 18 17 17 17 17 16 16 16 16
19 18 17 16 16 16 17 17 17 16 17 16 16 16 17 19 19 19 19 18 18 18 18 18 18 18 18 18 18 18 18 18 18 18 18 18 17 17 17 17 16 16 16
17 16 16 15 15 16 16 16 16 16 16 16 16 15 15 16 15 17 18 18 18 17 17 17 18 17 17 18 18 18 18 18 18 18 18 18 18 17 17 17 16 16 16
15 15 15 15 15 15 15 16 16 16 16 15 16 15 15 15 15 15 16 17 17 17 17 17 17 17 17 17 17 17 18 18 18 18 17 17 17 17 17 17 16 16 16
14 14 14 14 14 15 15 15 15 15 15 15 15 15 15 15 15 15 15 16 16 17 17 17 17 17 17 17 17 17 17 18 18 17 17 17 17 17 17 17 16 16 16
14 14 14 14 15 15 15 15 15 15 15 15 15 15 15 15 15 15 15 15 16 17 16 16 16 16 16 16 16 16 17 17 17 17 17 17 17 17 17 17 17 16 16
14 14 14 14 15 15 15 15 15 15 15 15 14 15 15 15 15 15 15 15 16 17 16 16 15 15 15 15 16 16 16 17 17 16 16 16 17 17 17 17 16 16 16
14 14 14 14 14 14 14 14 14 14 14 14 14 14 14 14 14 14 14 14 15 16 17 16 15 15 14 14 15 15 15 15 15 15 15 16 16 16 16 16 16 16 15
13 13 13 13 13 13 13 13 13 14 14 14 14 14 14 14 14 14 14 14 14 15 16 15 14 14 14 14 14 15 14 14 14 15 15 15 16 15 16 16 16 16 15
13 13 12 12 12 12 12 12 13 13 13 13 13 13 13 13 13 14 14 14 14 14 14 15 14 14 14 14 14 15 14 14 14 14 14 15 15 15 16 16 16 16 16
12 12 12 12 12 12 12 12 12 12 12 12 12 12 12 12 12 12 13 13 13 13 13 14 14 14 14 14 14 14 15 14 14 14 14 14 14 15 15 15 16 16 15
12 12 12 11 12 12 12 12 12 12 12 12 12 12 12 12 12 12 12 13 13 13 13 13 13 13 13 14 14 14 14 14 14 14 13 14 14 14 14 15 15 15 15
12 11 11 11 11 11 11 11 11 11 11 11 11 11 11 11 11 11 12 12 13 13 13 13 13 13 13 13 13 13 13 14 13 13 13 13 13 13 14 14 15 15 15
11 11 11 11 11 11 11 11 11 11 11 11 11 11 11 11 12 12 12 12 12 13 13 14 13 13 13 12 12 12 13 13 13 13 13 12 13 13 13 14 14 14 13
11 11 11 11 11 12 12 11 11 11 11 11 11 11 11 11 11 12 12 12 12 12 12 13 13 13 12 12 12 12 12 12 12 12 12 12 12 12 13 13 13 13 13
11 11 11 11 11 12 12 11 11 11 11 11 11 11 12 11 11 11 11 11 11 12 12 11 12 12 12 12 12 12 12 12 11 11 11 11 11 11 12 12 12 12 12
11 11 11 11 12 12 11 11 11 11 11 11 10 10 10 11 11 11 11 11 11 11 11 11 11 11 12 12 12 12 12 12 12 11 11 11 11 11 11 12 12 12 12
11 11 11 11 12 11 11 11 11 11 10 10 10 10 10 10 11 11 10 11 11 11 11 11 11 11 11 12 12 12 12 13 12 11 11 11 10 11 11 11 11 12 12
11 11 11 11 11 11 11 11 11 11 10 10 10 10 10 10 10 10 10 10 10 10 10 11 11 11 11 11 11 11 11 12 12 11 11 11 11 11 10 10 10 11 11

GEFSMA_850_meantemp_012.txt.gz
Temperature
20 19 20 20 19 19 19 19 19 19 19 19 19 19 19 19 19 19 19 19 19 19 19 19 19 19 19 19 19 19 19 19 18 18 17 17 17 17 17 17 16 16 16
20 20 20 19 19 19 19 19 19 19 19 19 19 19 19 19 19 19 19 19 19 19 19 19 19 20 20 20 19 19 19 19 19 18 18 17 17 17 17 17 17 16 16
20 20 20 19 19 19 19 19 19 19 19 19 19 19 19 19 19 19 19 19 19 19 19 19 20 20 20 20 20 19 19 19 19 18 18 18 18 18 17 17 17 17 16
20 19 19 19 20 20 19 19 19 19 19 19 19 19 19 19 19 19 19 19 19 19 19 19 19 19 19 20 19 19 19 19 19 19 18 18 18 18 18 18 17 17 17
20 19 19 19 20 20 20 19 19 19 19 19 19 19 20 19 19 19 19 19 19 19 19 19 19 19 19 19 19 19 19 19 19 19 18 18 18 18 18 18 18 17 17
20 19 19 19 19 19 19 19 19 19 19 19 19 19 19 19 19 19 19 19 19 20 20 20 19 19 20 19 19 19 19 19 19 19 19 18 18 18 18 18 18 18 17
19 19 19 18 18 18 19 19 19 19 19 19 19 19 19 19 19 20 20 20 20 20 20 20 20 19 20 20 19 19 19 19 19 19 19 19 19 18 18 18 18 18 17
19 18 18 18 18 18 18 18 19 19 19 19 18 18 18 18 19 20 21 21 20 20 20 20 20 20 20 19 19 19 19 18 18 19 19 19 19 18 18 18 17 17 17
19 18 18 18 18 17 18 18 18 18 18 18 18 18 17 17 19 20 20 20 20 20 20 19 19 19 19 19 19 19 18 18 18 18 18 18 18 18 18 17 17 17 17
18 18 18 18 17 17 17 17 17 17 17 17 17 17 17 17 17 18 19 19 19 19 19 19 19 19 19 19 19 18 18 18 18 18 18 18 18 18 18 17 17 17 17
17 17 17 17 17 17 17 16 16 16 16 16 16 16 16 16 16 16 17 18 18 18 18 18 18 18 18 18 18 18 18 18 18 18 18 18 18 18 18 17 17 17 16
17 17 16 16 16 16 16 16 15 15 15 15 15 15 15 15 16 16 16 17 17 18 18 18 18 18 17 17 17 17 17 17 17 17 17 17 17 17 17 17 17 17 16
16 16 16 16 15 15 15 15 15 15 14 14 14 15 15 15 15 16 16 16 16 17 17 17 17 17 17 17 17 17 17 17 17 17 17 17 17 17 17 17 17 16 16
16 16 15 15 15 15 15 14 14 14 14 14 14 14 15 15 15 15 16 16 16 17 17 17 17 17 16 16 16 16 16 16 16 16 16 16 16 16 16 16 16 16 16
15 15 15 15 15 14 14 14 14 14 14 14 14 14 15 15 15 15 15 15 16 16 16 16 16 16 16 15 15 15 16 16 16 16 16 16 16 16 16 16 16 16 16
14 14 14 14 14 14 14 14 14 14 14 14 14 14 15 15 15 15 15 15 15 15 15 15 15 15 15 15 15 15 15 16 16 16 15 15 15 15 15 15 15 16 16
13 14 13 14 14 14 14 14 14 14 14 14 14 14 14 14 14 15 15 15 15 15 15 15 15 15 15 15 15 15 15 15 15 15 15 15 14 14 14 15 15 15 15
12 12 13 13 13 13 13 14 14 14 14 14 14 14 14 14 14 14 14 14 14 14 14 14 14 14 14 14 14 14 14 14 14 15 14 14 14 14 14 14 14 15 15
12 12 12 12 13 13 13 13 13 13 13 13 13 13 13 13 13 13 13 14 14 14 14 14 14 14 13 13 13 13 13 14 14 14 13 13 13 13 13 14 14 14 14
11 11 12 12 12 12 13 13 13 13 13 12 12 13 13 13 13 13 13 13 14 14 14 14 14 13 13 13 13 13 13 13 13 13 13 13 13 13 13 13 13 13 14
11 11 11 11 12 12 12 12 12 12 12 12 12 13 12 12 13 13 13 13 13 13 13 13 13 12 12 13 12 12 12 12 13 12 12 12 12 12 12 12 13 13 13
11 11 11 11 12 12 12 12 12 12 12 12 12 12 12 12 12 12 12 13 13 13 13 12 12 12 12 12 12 12 12 12 12 12 12 11 11 11 12 12 12 12 13
11 11 11 12 12 12 12 12 11 12 12 12 12 12 12 12 12 12 12 12 12 12 12 12 12 12 12 12 12 12 12 12 11 11 12 11 11 11 11 11 11 12 12
11 11 12 12 12 12 12 11 11 11 11 11 11 11 12 12 12 12 11 11 12 12 12 12 12 12 11 11 12 12 12 12 11 11 11 11 11 11 11 11 11 11 12
12 12 12 12 12 12 12 12 11 11 11 11 11 11 11 11 11 11 11 11 12 11 12 12 12 12 12 11 11 11 11 11 11 11 11 11 11 11 11 11 11 11 11
12 12 12 12 12 12 12 12 12 11 11 11 11 11 11 11 11 11 11 11 11 12 12 12 12 12 11 11 11 11 11 10 10 10 10 11 11 11 11 11 11 11 11

GEFSMA_850_meantemp_018.txt.gz
Temperature
20 20 19 19 19 19 18 19 19 19 19 19 19 18 18 18 19 19 19 19 19 19 19 19 19 19 18 18 18 18 18 18 18 18 18 18 17 17 17 17 16 16 16
20 20 20 19 19 19 19 19 19 19 19 18 18 18 18 18 19 19 19 19 19 19 19 19 19 19 19 18 18 18 18 18 18 18 18 18 17 17 17 17 17 16 16
19 19 19 19 19 19 19 19 19 19 18 18 18 18 18 18 19 19 19 19 19 19 19 19 19 19 19 19 18 18 19 19 18 18 18 18 18 17 17 17 17 17 16
19 19 19 19 19 19 19 19 19 19 18 18 18 18 18 18 18 19 19 19 19 19 19 19 19 19 19 18 18 18 18 19 19 18 18 18 18 17 17 17 17 17 17
19 19 19 19 19 18 18 19 19 18 18 18 18 18 18 18 19 19 19 19 19 19 19 19 19 19 19 18 18 18 18 18 18 18 18 18 18 17 17 17 17 17 17
19 19 19 19 18 18 18 18 19 19 18 18 18 18 18 18 19 19 19 19 19 19 19 19 19 19 19 19 19 18 18 18 18 18 18 18 18 18 17 17 17 17 17
19 19 19 19 18 18 18 19 19 18 18 18 18 18 18 18 18 19 19 19 19 19 19 20 19 19 19 19 19 19 18 18 18 18 18 18 18 18 18 17 17 17 17
18 18 18 18 18 18 18 18 18 18 18 18 18 18 17 18 19 19 19 19 19 19 19 20 20 19 19 19 19 19 19 18 18 18 18 18 18 18 18 17 17 17 17
18 17 17 17 17 17 17 18 18 18 18 18 18 17 16 16 17 18 18 18 18 18 19 19 19 19 19 19 19 19 19 18 18 18 18 18 18 18 18 17 17 17 17
17 17 17 17 17 17 17 17 17 17 17 17 17 17 16 16 16 16 17 17 17 18 18 18 18 18 18 18 18 18 18 18 18 18 17 17 17 17 17 17 17 17 17
16 16 16 16 16 16 16 16 16 16 16 16 16 16 16 15 15 15 15 16 17 17 17 17 18 18 18 18 18 18 18 18 18 18 17 17 17 17 17 17 17 17 16
16 16 16 16 16 16 16 16 16 16 16 16 15 15 15 15 15 15 15 15 16 16 16 17 17 17 17 17 17 17 17 17 17 17 17 17 17 17 17 17 17 17 16
15 15 15 15 15 16 16 16 15 16 16 15 15 15 15 14 14 14 14 14 15 15 16 16 16 16 16 16 16 16 17 17 17 17 17 17 17 17 17 17 17 16 16
14 14 14 15 15 15 15 15 15 15 15 15 14 14 14 14 14 14 14 14 14 15 15 15 15 15 15 15 16 16 16 16 16 16 16 16 16 16 16 16 16 16 16
13 13 14 14 14 14 15 15 14 14 14 14 14 13 13 13 13 13 14 14 14 14 14 14 14 14 14 15 15 15 16 16 16 16 16 16 16 16 15 15 15 16 16
12 13 13 13 14 14 14 14 14 14 14 13 13 13 13 13 13 13 14 14 14 14 14 14 14 14 14 14 15 15 15 15 15 15 15 15 15 15 15 15 15 15 15
12 12 12 13 13 13 14 14 14 13 13 13 13 13 13 13 13 13 14 14 14 14 14 13 13 13 14 14 14 14 14 14 15 15 15 14 14 14 14 14 14 14 14
12 12 12 12 13 13 13 13 13 13 13 13 12 12 13 13 13 13 14 14 14 14 14 13 13 13 13 13 13 13 14 14 14 14 14 14 13 13 13 13 13 13 13
11 11 12 12 12 12 12 13 12 12 12 12 12 12 12 13 13 13 14 14 14 13 13 13 13 13 13 13 13 13 13 13 13 13 13 13 13 12 12 12 12 12 12
11 11 11 12 12 12 12 12 12 12 12 12 12 12 12 13 13 13 14 14 13 13 13 13 13 13 12 13 13 13 13 13 12 12 12 12 12 12 12 12 12 12 12
11 11 11 11 11 11 11 11 11 11 11 11 12 12 12 13 13 13 13 13 13 13 13 13 12 12 12 12 12 12 12 12 12 12 12 12 12 12 12 12 12 12 12
11 11 11 11 11 11 11 11 11 11 11 11 12 12 12 12 12 12 12 12 13 13 12 12 12 11 11 11 11 11 12 12 11 11 12 11 12 11 11 11 11 11 11
11 11 11 11 11 11 11 11 11 11 11 11 12 12 12 12 12 12 12 12 12 12 12 11 11 11 11 11 11 11 11 11 11 11 11 11 11 11 11 11 11 11 11
11 11 11 11 11 11 11 11 11 11 11 11 11 11 11 11 11 11 12 12 11 11 11 11 11 11 10 10 10 10 10 10 10 10 11 11 11 11 11 10 10 10 10
11 11 11 11 11 11 11 11 11 11 11 11 11 11 11 11 11 11 11 11 11 11 11 11 11 10 10 10 10 10 10 10 10 10 10 10 10 11 11 10 10 10 10
11 11 11 11 11 11 11 11 11 11 11 11 11 11 11 11 11 11 11 11 11 11 11 11 10 10 10 10 10 10 10 10 9 9 9 9 9 10 10 10 9 9 10

GEFSMA_850_meantemp_024.txt.gz
Temperature
19 19 19 19 19 18 18 18 18 18 18 18 18 18 18 18 18 18 18 18 18 18 18 18 18 18 18 18 18 18 18 17 17 17 17 17 17 17 17 17 16 16 16
18 19 19 19 19 19 18 18 18 18 18 18 18 18 18 18 18 18 18 18 18 18 18 18 18 18 18 18 18 18 18 18 17 17 17 17 17 17 17 17 17 16 16
18 18 18 19 19 19 18 18 18 18 18 18 18 18 18 18 18 18 18 18 18 19 19 18 18 18 18 18 18 18 18 18 18 17 17 17 17 17 17 17 17 16 16
18 18 18 18 18 18 18 18 18 18 18 18 18 18 18 18 18 18 18 18 18 18 19 19 19 19 18 18 18 18 18 18 18 18 17 17 17 17 17 17 17 17 16
17 17 17 17 17 17 18 18 18 18 18 18 18 18 18 18 18 18 18 18 18 19 19 19 19 19 19 19 18 18 18 18 18 18 18 18 18 18 17 17 17 17 17
17 17 17 17 17 17 17 17 17 18 18 18 18 18 18 18 18 18 18 18 18 19 19 19 19 19 19 19 19 18 18 18 18 18 18 18 18 18 18 18 17 17 17
17 17 17 17 17 17 17 17 17 17 17 17 17 17 18 18 18 18 18 18 18 19 19 19 19 19 19 19 19 19 18 18 18 18 18 18 18 18 18 18 17 17 17
17 17 17 17 17 17 17 17 16 16 17 17 17 17 17 17 18 18 18 18 18 19 19 19 19 19 19 19 19 19 19 18 18 18 18 18 18 18 18 17 17 17 17
16 16 16 16 16 16 16 16 16 16 16 16 16 16 16 16 17 17 18 18 18 18 18 18 18 18 18 18 18 19 19 19 18 18 18 18 18 18 18 17 17 17 17
16 16 16 16 16 16 16 16 16 15 15 15 16 16 16 16 15 16 16 17 17 17 17 17 17 17 17 17 18 18 18 18 18 18 18 18 18 18 18 17 17 17 17
16 15 15 15 15 15 15 15 15 15 15 15 15 15 15 15 15 15 15 16 16 16 16 16 16 16 16 17 17 17 18 18 18 18 18 18 18 18 18 17 17 17 17
15 15 15 15 14 14 14 14 14 14 14 14 15 15 15 15 15 15 14 15 15 15 15 15 15 15 16 16 16 16 17 17 17 18 18 18 17 18 17 17 17 17 17
15 15 14 14 14 14 14 14 14 14 14 14 14 14 14 15 14 14 14 14 14 14 14 14 15 15 15 15 15 15 16 16 17 17 17 17 17 17 17 17 17 16 16
14 14 14 14 14 14 14 14 14 14 14 14 14 14 14 14 14 14 14 14 14 14 14 14 14 14 14 14 14 15 15 16 16 16 16 16 16 16 17 17 17 16 16
14 14 13 13 13 13 13 13 13 14 14 14 14 14 14 14 14 14 14 14 14 13 13 13 13 13 13 13 14 14 14 15 15 15 16 16 16 16 16 16 16 16 16
13 13 13 13 13 13 13 13 13 13 13 13 13 13 13 13 13 13 13 13 13 13 13 13 13 12 13 13 13 13 14 14 14 14 15 15 15 15 15 15 15 15 15
13 13 13 13 12 12 12 13 13 13 13 13 13 13 13 13 13 13 13 13 13 13 13 12 12 12 12 12 13 13 14 14 14 14 14 14 14 14 14 14 14 14 14
13 12 12 12 12 12 12 12 12 12 12 12 12 12 12 12 12 12 13 13 13 13 13 12 12 12 12 12 13 13 13 13 13 13 13 13 13 13 13 13 13 14 14
12 12 12 12 12 12 12 12 12 12 12 12 12 12 12 12 12 12 12 12 12 12 12 12 12 12 12 12 12 12 13 13 13 12 12 12 12 12 13 13 13 13 13
12 12 12 12 11 11 11 11 11 11 11 11 12 12 12 12 12 12 12 12 12 12 12 12 12 12 12 12 12 12 12 12 12 12 12 12 12 12 12 12 12 12 12
12 12 11 11 11 11 11 11 11 11 11 11 11 11 11 12 12 12 12 12 12 12 12 12 12 12 11 11 11 11 11 11 11 11 11 11 11 11 11 11 11 12 12
12 11 11 11 11 11 11 11 11 11 11 11 11 11 11 11 11 11 12 12 12 13 12 12 12 11 11 11 11 11 11 11 11 11 11 11 11 11 11 11 11 11 11
12 11 11 11 11 11 11 10 10 11 11 11 11 11 11 11 11 11 11 11 11 11 12 12 11 11 11 11 11 11 11 11 10 10 11 10 10 10 10 10 10 10 11
12 11 11 11 11 10 10 10 10 10 10 11 11 11 11 11 11 11 11 11 11 11 11 11 11 10 10 10 10 10 10 10 10 10 10 10 10 10 9 9 9 10 10
11 11 11 11 11 10 10 10 10 11 11 11 11 11 11 11 11 11 11 11 11 10 10 10 10 10 10 10 10 10 10 10 9 9 9 9 9 9 9 9 9 9 9
11 11 11 11 11 11 10 10 11 11 11 11 11 11 11 11 11 11 11 11 11 10 10 10 10 10 9 9 9 9 9 9 9 9 9 9 8 9 8 8 8 9 9

GEFSMA_850_meantemp_030.txt.gz
Temperature
18 18 18 18 18 18 18 18 18 18 18 18 18 18 18 18 18 18 19 19 19 19 18 18 18 18 18 18 18 18 18 18 17 17 17 17 17 17 17 17 17 17 16
18 18 18 18 18 18 18 18 18 18 18 18 18 18 18 18 18 18 18 19 19 19 19 19 18 18 18 18 18 18 18 18 18 18 17 17 17 17 17 17 17 17 16
18 18 18 18 18 18 18 18 18 18 18 18 18 18 18 18 18 18 18 18 19 19 19 19 19 18 18 18 18 18 18 18 18 18 18 18 17 17 17 17 17 17 17
17 18 17 17 18 18 18 18 18 18 18 18 18 18 18 18 18 18 18 18 19 19 19 19 19 19 19 18 18 18 18 18 18 18 18 18 18 17 17 17 17 17 17
17 17 17 17 17 17 17 17 17 17 17 18 18 18 18 18 18 18 18 18 18 18 19 19 19 19 19 19 19 19 19 19 19 18 18 18 18 18 18 17 17 17 17
16 16 16 16 16 16 16 16 16 17 17 17 17 17 17 18 18 18 18 18 18 18 19 18 18 19 19 19 19 19 19 19 19 19 19 18 18 18 18 18 18 17 17
16 16 16 16 16 16 16 16 16 16 16 17 17 17 17 18 18 18 18 18 19 19 18 18 18 18 19 19 19 19 19 19 19 19 19 19 18 18 18 18 18 18 18
16 16 15 16 15 15 16 15 15 15 16 16 16 17 18 19 19 19 18 18 18 19 19 18 18 18 18 18 19 19 19 20 19 19 19 19 19 18 18 18 18 18 18
16 16 16 15 15 15 15 15 15 15 15 16 16 16 17 19 20 20 19 19 18 18 19 19 18 18 18 18 18 18 19 19 19 19 19 19 19 18 18 18 18 18 18
16 16 15 15 15 15 14 15 14 14 14 15 16 16 16 17 18 19 20 19 18 18 18 18 19 18 18 17 17 18 18 18 19 19 19 18 18 18 18 18 18 18 17
15 15 15 15 15 14 14 15 15 14 14 14 15 15 16 16 16 16 18 19 19 18 18 17 17 18 18 17 17 17 17 18 18 18 18 18 18 18 18 18 18 18 17
15 14 14 14 14 14 14 14 14 14 14 14 14 14 15 15 16 16 17 17 18 18 18 17 17 17 17 16 16 16 17 17 17 17 17 18 18 18 18 18 18 18 17
15 14 14 14 14 14 14 14 14 14 13 13 13 14 14 15 15 16 16 17 17 17 17 16 16 16 16 16 16 16 16 16 16 16 16 17 17 17 17 17 17 17 17
15 15 15 14 14 14 14 14 13 13 13 13 13 13 14 14 15 15 15 15 16 16 16 15 15 15 15 15 15 15 15 15 15 15 15 16 16 16 17 17 17 17 17
15 14 14 14 14 14 14 14 13 13 13 13 13 13 14 14 14 15 15 15 15 15 15 15 14 14 14 14 14 14 14 14 14 14 14 15 15 15 16 16 16 17 17
15 14 14 14 13 13 13 13 13 13 13 13 13 13 14 14 14 14 14 15 15 14 14 14 13 13 13 13 13 13 13 13 13 13 14 14 14 14 15 15 15 15 16
14 14 14 13 13 13 13 13 12 12 12 13 13 13 13 13 14 14 14 14 14 14 13 13 13 12 12 12 12 12 12 12 12 13 13 13 13 13 14 14 14 14 14
14 13 13 13 13 12 12 12 12 12 12 12 12 12 13 13 13 13 13 14 14 13 13 12 12 12 12 12 12 12 12 12 12 12 12 12 13 13 13 13 13 13 14
13 13 12 12 12 12 12 12 12 12 12 12 12 12 12 13 13 13 13 13 13 12 12 12 11 11 11 11 11 11 11 11 11 12 12 12 12 12 12 12 12 13 13
12 12 12 12 12 12 12 12 12 12 12 12 12 12 12 12 12 12 12 12 12 12 11 11 11 11 11 11 11 11 11 11 11 11 11 11 11 11 12 12 12 12 12
11 12 12 12 12 12 12 12 11 11 11 11 11 11 11 11 11 11 11 11 11 11 11 11 11 11 11 11 11 11 11 10 10 10 11 10 10 11 11 11 12 12 12
11 11 11 12 11 12 12 12 11 11 11 11 11 11 11 11 11 11 11 11 11 11 11 11 11 11 11 11 11 11 11 11 11 10 11 10 10 10 10 11 11 11 11
10 10 11 11 11 11 12 12 11 11 11 11 11 11 11 10 10 11 11 11 10 10 11 11 11 11 11 11 11 11 11 11 11 10 11 10 10 9 9 10 10 10 10
9 10 10 11 11 11 11 11 11 10 11 11 11 11 11 10 10 10 10 10 10 10 10 10 10 10 10 10 11 11 11 11 10 10 11 11 10 9 9 9 9 9 10
8 9 9 10 10 11 11 11 11 11 10 10 10 10 10 10 10 10 10 10 10 10 10 11 11 10 10 10 10 11 11 11 11 10 11 11 10 10 10 9 9 9 9
8 8 9 9 10 10 11 11 11 11 11 10 10 10 10 10 10 10 10 10 10 10 10 10 10 10 10 10 10 11 12 12 11 10 10 11 11 11 10 9 9 8 8

GEFSMA_850_meantemp_036.txt.gz
Temperature
19 19 19 19 19 19 19 19 19 19 19 19 19 19 19 19 19 19 19 19 19 19 19 19 19 19 19 19 19 19 19 18 18 18 18 18 17 17 17 17 17 17 17
19 19 19 19 19 19 19 19 19 19 19 19 19 19 19 19 19 19 19 19 19 19 19 19 19 19 19 19 19 19 19 19 19 18 18 18 18 18 17 17 17 17 17
19 19 18 18 18 18 18 18 18 18 18 18 18 18 18 19 19 19 19 19 19 19 19 19 19 19 19 19 19 19 19 19 19 19 19 18 18 18 18 18 17 17 17
19 19 18 18 18 18 18 18 18 18 18 18 18 18 18 18 18 19 19 19 19 19 19 19 19 19 19 19 19 19 19 19 19 19 19 19 18 18 18 18 18 18 18
19 18 18 17 17 17 17 17 18 17 17 17 17 18 18 18 18 18 18 19 19 19 19 19 19 19 19 19 19 19 19 19 19 19 19 19 19 19 18 18 18 18 18
19 18 18 17 17 17 17 17 17 17 17 17 17 17 17 18 18 18 18 19 19 19 19 19 19 19 19 19 19 19 19 19 19 19 19 19 19 19 19 19 18 18 18
19 18 18 17 17 16 16 16 16 16 16 16 16 17 17 18 18 19 19 19 19 19 19 19 19 19 19 19 19 19 19 19 19 19 19 19 19 19 19 19 18 18 18
19 18 17 18 17 17 17 16 16 16 16 16 16 16 16 17 19 19 20 19 19 19 19 19 19 19 19 19 19 19 19 19 19 19 19 19 19 19 19 19 19 18 18
18 18 18 18 17 17 16 16 16 15 15 16 15 15 16 17 17 18 19 19 20 20 20 20 19 19 19 19 19 19 19 19 19 19 19 19 19 19 19 19 19 18 18
18 17 17 17 17 17 16 16 16 16 15 15 15 15 15 15 15 16 17 18 19 19 19 20 20 20 19 19 19 18 18 19 19 18 18 18 19 19 19 19 19 18 18
18 17 17 17 17 17 16 16 16 16 15 14 14 14 15 15 15 15 15 17 18 18 19 19 19 19 19 19 19 18 18 18 18 18 18 18 18 18 18 18 18 18 18
17 17 17 17 17 16 16 16 16 16 15 15 14 14 14 14 14 15 15 15 16 17 18 18 19 19 19 19 18 18 18 18 18 18 17 17 17 17 18 18 18 18 18
17 17 17 16 16 16 16 16 16 15 15 14 14 14 14 14 14 14 14 14 15 16 17 17 18 18 18 18 18 18 18 17 17 17 17 17 17 17 17 17 17 17 18
16 16 16 16 16 15 15 15 15 15 14 14 14 14 14 14 14 14 14 14 14 15 16 16 17 17 17 17 17 17 17 17 17 16 16 16 16 16 16 17 17 17 17
15 15 15 15 15 15 15 15 14 14 14 14 14 14 14 14 14 14 14 14 14 14 15 15 16 16 16 16 16 16 16 16 16 15 15 15 15 15 16 16 16 16 17
14 15 15 15 15 15 15 14 14 14 14 14 14 14 14 14 14 14 14 14 14 14 14 14 15 15 15 15 15 15 15 14 14 14 14 14 14 14 15 15 15 16 16
14 14 14 14 14 14 14 14 14 14 14 14 14 13 13 13 14 14 14 14 14 14 14 14 14 14 14 14 14 14 14 13 13 13 13 13 13 14 14 14 14 14 15
12 13 13 14 14 14 14 14 14 14 14 14 13 13 13 13 13 14 14 14 14 14 14 13 13 13 13 13 13 13 13 12 12 12 12 12 13 13 13 13 13 13 14
11 11 12 12 13 13 13 13 13 13 13 13 13 13 13 13 13 13 13 13 13 13 13 13 13 13 12 12 12 12 12 12 12 11 11 12 12 12 12 12 12 13 13
10 10 11 11 12 12 13 13 13 13 13 13 13 13 12 12 12 12 12 13 13 13 13 12 12 12 12 12 12 11 11 11 11 11 11 11 11 11 11 12 12 12 12
10 10 10 10 11 11 12 12 13 13 13 13 12 12 12 12 12 12 12 12 12 12 12 12 12 11 11 11 11 11 11 10 10 10 10 10 11 11 11 11 11 11 12
10 10 10 10 10 10 11 12 12 12 12 12 12 12 12 12 11 11 11 12 12 12 12 12 11 11 11 11 11 11 11 10 10 10 10 10 10 10 10 11 11 11 11
9 9 9 9 10 10 10 11 11 12 12 12 12 12 11 11 11 11 11 11 11 11 11 12 11 11 11 11 11 11 11 11 11 10 10 10 10 10 10 10 10 10 11
9 9 9 9 9 9 10 10 11 11 12 12 12 11 11 11 11 11 11 11 11 11 11 11 11 11 11 11 11 11 11 11 11 10 11 10 10 10 10 10 10 10 10
9 9 9 9 9 9 9 10 10 10 11 11 11 11 11 11 11 11 11 11 11 10 11 11 11 11 11 11 11 11 11 11 11 10 11 10 10 10 9 9 9 9 9
8 8 8 9 9 9 9 9 10 10 10 11 11 11 11 11 10 11 11 11 11 10 10 10 10 10 10 11 11 11 11 11 11 11 11 11 10 10 9 9 9 9 9

GEFSMA_850_meantemp_042.txt.gz
Temperature
19 19 18 18 18 18 18 18 18 18 18 18 18 18 18 18 18 18 18 18 18 18 18 18 18 18 18 18 18 18 18 18 18 18 18 18 18 18 18 18 17 17 17
19 18 18 18 18 18 18 18 17 17 17 17 17 17 17 17 17 17 18 18 18 18 18 18 18 18 18 18 18 18 18 18 18 18 18 18 18 18 18 18 17 17 17
19 19 19 18 18 18 18 17 17 17 17 17 17 17 17 17 17 17 17 18 18 18 18 18 18 18 18 18 18 18 18 18 19 18 18 18 18 18 18 18 18 17 17
19 19 19 18 18 18 17 17 17 17 17 17 17 17 17 17 17 17 17 18 18 18 18 18 18 18 18 18 18 18 18 18 18 18 18 18 18 18 18 18 18 18 17
19 19 19 19 18 18 17 17 17 17 17 17 17 17 17 18 18 18 18 18 18 18 18 18 18 18 18 18 18 18 18 18 18 18 18 18 18 18 18 18 18 18 18
19 19 19 19 18 18 18 17 17 17 17 17 17 17 17 18 18 18 18 18 18 18 18 18 18 18 18 18 18 18 18 18 18 18 18 18 18 18 18 18 18 18 18
20 19 19 19 19 18 18 18 17 17 17 17 17 17 18 18 18 18 17 17 17 17 17 17 17 17 18 18 18 18 18 18 18 18 18 18 18 18 18 18 18 18 18
19 19 19 19 19 19 18 18 17 17 17 16 16 16 16 17 17 17 17 17 17 17 17 17 17 18 18 18 18 18 18 18 18 18 18 18 18 18 18 18 18 18 18
19 19 19 19 19 19 18 18 18 17 17 16 16 15 15 14 15 17 17 17 17 17 17 17 17 18 18 18 18 18 18 18 18 18 17 17 18 18 18 18 18 18 18
18 18 18 18 18 18 18 18 18 17 17 17 16 15 15 14 14 14 16 17 17 17 17 17 17 18 18 18 18 18 18 18 18 17 17 17 17 17 18 17 17 18 18
17 17 17 17 17 17 17 17 17 17 17 16 16 16 15 15 14 14 14 16 16 16 16 16 17 17 17 17 18 18 18 18 18 17 17 17 17 17 17 17 17 17 17
16 16 16 16 17 17 17 17 17 17 16 16 16 16 15 15 15 14 13 14 15 16 16 16 16 16 17 17 18 18 18 18 18 18 17 17 17 17 17 17 17 17 17
15 16 16 16 16 16 16 16 16 16 16 16 16 16 15 15 14 14 13 13 13 14 15 15 16 16 16 17 17 18 18 17 17 17 17 17 17 17 17 17 17 17 17
14 14 14 14 15 15 15 15 15 15 15 15 15 15 15 15 14 14 13 13 13 13 14 14 15 15 15 16 16 17 17 17 17 17 17 17 17 17 17 17 17 17 17
13 13 13 13 13 14 14 14 14 15 15 15 15 15 15 15 14 14 14 13 13 12 13 14 14 14 14 15 15 16 16 16 16 17 16 16 16 16 16 16 16 16 16
12 12 12 12 13 13 13 13 13 14 14 14 14 14 14 15 14 14 14 13 13 13 12 13 13 14 14 14 14 15 15 15 15 16 16 16 16 15 15 15 15 16 16
11 11 11 11 11 12 12 12 13 13 13 13 14 14 14 14 14 14 14 14 13 13 13 13 13 13 13 13 13 13 14 14 14 14 14 15 15 15 15 15 15 15 15
10 10 10 10 11 11 11 11 12 12 12 13 13 13 13 14 14 14 14 14 14 13 13 13 13 13 13 13 13 12 12 13 13 13 13 13 13 14 14 14 14 14 14
10 10 10 10 10 10 10 11 11 11 12 12 12 12 13 13 13 14 14 14 14 13 13 13 13 13 12 12 12 12 12 12 12 12 12 12 12 13 13 13 13 13 13
10 10 10 10 10 10 10 10 10 10 11 11 12 12 12 13 13 13 13 13 13 13 13 12 12 12 12 12 12 12 11 11 11 11 11 12 12 12 12 12 12 12 12
10 10 10 10 9 9 9 10 10 10 10 11 11 12 12 13 13 13 13 13 13 13 12 12 12 12 12 11 11 11 11 11 10 11 11 11 11 11 11 11 11 12 12
10 10 10 9 9 9 9 9 9 10 10 10 11 11 12 12 12 12 13 13 12 12 12 12 12 12 12 11 11 11 11 11 10 10 11 10 10 11 11 11 11 11 11
9 9 9 9 9 9 9 9 9 9 9 10 10 11 11 12 12 12 12 12 12 12 12 12 12 12 12 11 11 11 11 11 11 10 10 10 10 10 10 10 10 10 10
9 9 9 9 9 9 9 9 9 9 9 10 10 10 11 11 11 12 12 11 11 11 11 12 12 12 12 11 11 11 11 10 10 10 10 10 9 9 9 9 9 9 10
9 9 8 8 8 8 9 9 9 9 9 9 9 10 10 11 11 11 11 11 11 11 11 11 11 11 11 11 11 11 10 10 9 9 10 10 9 9 9 8 8 8 9
8 8 8 8 8 8 8 8 8 8 9 9 9 9 10 10 11 11 11 11 11 11 11 11 11 11 11 11 11 11 11 10 10 9 9 9 9 9 8 8 8 8 8

GEFSMA_850_meantemp_048.txt.gz
Temperature
18 18 18 18 18 18 18 18 18 18 18 18 18 18 18 18 18 18 18 18 18 18 18 18 18 18 18 18 18 18 17 17 17 16 17 17 17 17 17 17 17 17 17
18 18 18 18 18 18 18 18 18 17 17 17 17 17 18 18 18 18 18 18 18 18 18 18 18 18 18 18 18 18 18 17 17 17 16 16 17 17 17 17 17 17 17
18 18 18 18 18 18 17 17 17 17 17 17 17 17 17 17 17 17 18 18 18 18 18 18 18 18 18 18 18 18 18 17 17 17 17 16 17 17 17 17 17 16 16
17 17 17 17 17 17 17 17 17 17 17 17 17 17 17 17 17 17 17 17 17 18 18 18 18 18 18 18 18 18 18 17 17 17 17 17 17 17 17 17 17 17 16
17 17 17 17 17 17 17 17 17 17 17 17 17 17 17 17 17 17 17 17 17 17 17 17 17 17 18 18 18 18 18 18 18 17 17 17 17 17 17 17 17 17 16
17 17 17 18 18 17 17 17 17 17 17 17 17 17 17 17 17 17 17 17 17 17 17 17 17 17 17 18 18 18 18 18 18 18 17 17 17 17 17 17 17 17 17
17 17 17 18 18 18 18 17 17 17 17 17 17 17 17 17 17 17 17 16 16 16 17 17 17 17 17 17 18 18 18 18 18 18 18 17 17 17 17 17 17 17 17
16 17 17 18 18 18 18 18 17 17 17 17 17 17 17 17 17 17 16 16 16 16 16 17 17 17 17 17 18 18 18 18 17 18 18 17 17 17 17 17 17 17 17
16 16 17 17 17 17 18 18 17 17 17 17 17 16 16 17 16 16 16 16 16 16 16 16 17 17 17 17 17 18 18 18 18 18 17 17 17 17 17 17 17 17 17
16 16 16 16 17 17 17 17 17 17 17 17 16 16 16 16 16 16 16 16 16 16 16 16 16 17 17 17 17 17 18 18 18 18 17 17 17 17 17 17 17 17 17
16 16 16 16 16 16 16 16 16 17 17 16 16 16 16 15 15 15 15 16 16 16 16 16 16 16 16 17 17 17 17 18 18 18 18 18 17 17 17 17 17 17 17
15 15 15 15 16 16 16 16 16 16 16 16 16 16 16 15 15 15 14 15 15 16 16 15 15 15 16 16 16 17 17 17 18 18 18 18 17 17 17 17 17 17 17
14 14 14 14 14 15 15 15 15 15 15 15 15 15 15 15 15 14 14 14 14 14 15 16 15 15 15 15 16 16 16 17 17 17 17 18 17 17 17 17 17 17 17
13 13 13 13 13 13 14 14 14 15 15 15 15 15 15 15 15 14 14 13 13 13 14 15 15 14 14 14 15 15 16 16 17 17 17 17 17 17 17 17 17 17 17
12 12 12 12 12 12 12 12 13 13 13 14 14 14 14 14 14 14 14 13 13 12 12 14 14 14 14 14 14 15 15 16 16 16 17 17 17 17 17 17 16 16 16
11 11 11 11 11 11 11 12 12 12 12 13 13 13 14 14 14 14 14 13 13 12 12 13 14 13 13 13 14 14 14 15 15 15 16 16 16 16 16 16 16 16 16
11 11 10 10 10 10 11 11 11 11 12 12 12 12 13 13 13 13 13 13 13 13 12 13 13 13 13 13 13 13 13 13 14 14 15 15 15 15 15 15 15 15 15
11 11 10 10 10 10 10 10 10 10 11 11 11 12 12 12 12 13 13 13 13 13 12 13 13 13 13 13 13 13 13 13 13 13 13 14 14 15 15 15 15 15 15
11 11 10 10 10 10 10 10 10 10 10 10 10 11 11 12 12 12 13 13 13 13 13 12 12 12 12 12 12 12 12 12 12 12 12 13 13 13 14 14 14 14 14
11 11 10 10 10 10 10 9 9 9 10 10 10 10 11 11 11 12 12 13 13 13 12 12 12 12 12 12 12 12 12 12 12 12 12 12 12 12 13 13 13 13 13
11 10 10 10 10 10 9 9 9 9 9 9 10 10 10 10 11 11 12 12 12 12 12 12 12 12 12 12 12 12 11 11 11 11 11 11 11 11 12 12 12 12 12
10 10 10 10 10 9 9 9 9 9 9 9 9 9 10 10 11 11 11 12 12 12 12 12 12 12 12 12 12 11 11 11 10 10 11 10 11 11 11 11 11 11 11
10 10 10 10 10 9 9 9 9 9 9 9 9 9 9 10 10 11 11 11 11 11 12 12 12 12 12 12 12 11 11 11 11 10 10 10 10 10 10 10 10 10 10
8 9 9 9 9 9 9 9 9 8 8 8 8 9 9 9 10 10 10 11 11 11 11 11 12 12 12 12 12 12 11 11 10 10 10 10 9 9 9 9 9 9 9
7 8 8 8 8 9 9 9 8 8 8 8 8 8 9 9 9 10 10 10 10 11 11 11 11 11 11 11 11 11 11 11 10 9 9 9 9 8 8 8 8 8 8
6 7 7 8 8 8 8 8 8 8 8 8 8 8 8 9 9 9 9 10 10 10 11 11 11 11 11 11 11 11 11 11 10 9 9 9 8 8 7 7 7 8 8